[[{"header":{"parameterUnit":"m.s-1","parameterCategory":1,"la1":30.2991,"la2":30.254,"lo1":-89.0895,"lo2":-89.0444,"dy":0.0017,"dx":0.0017,"nx":28,"ny":28,"refTime":"2023-11-12T09:00:00:Z","depth":0,"parameterNumber":2,"parameterNumberName":"U-component_of_WINDS"},"data":[0,0,0,0,0,0,0,0,0,0,0,0,0,0,0,0,0,0,0,0,0,0,0,0,0,0,0,0,0,0,0,0,0,0,0,0,0,0,0,0,0,0,0,0,0,0,0,0,0,0,0,0,0,0,0,0,0,0,-4.9064,-4.9064,0,-4.9065,-4.9065,-4.9065,-4.8926,-4.8922,-4.8919,-4.8915,-4.8917,-4.892,-4.8924,0,0,0,0,0,0,0,0,0,0,0,0,0,-4.894,-4.8943,-4.9064,-4.9064,-4.9064,-4.9065,-4.9065,-4.9065,-4.8927,-4.8922,-4.8918,-4.8913,-4.8916,-4.892,-4.8924,0,0,0,0,0,0,0,0,0,0,0,0,0,-4.8973,-4.8944,-4.9064,-4.8995,-4.8989,-4.9065,-4.9065,-4.9065,-4.8928,-4.8922,-4.8916,-4.8911,-4.8915,-4.892,-4.8925,-4.9067,0,0,-4.8941,-4.8943,0,0,0,0,0,0,0,0,-4.8972,-4.8978,-4.9005,-4.9,-4.8993,-4.899,-4.9022,-4.9066,-4.8929,-4.8951,-4.8915,-4.8909,-4.8946,-4.8948,-4.896,-4.9068,-4.9068,-4.8941,-4.8944,-4.8947,-4.8948,0,0,0,0,0,0,0,-4.8969,-4.8977,-4.9064,-4.9005,-4.8998,-4.8963,-4.8962,-4.903,-4.8979,-4.8948,-4.8938,-4.894,-4.8941,-4.8956,-4.8959,-4.9068,-4.8941,-4.8946,-4.8949,-4.8951,-4.9291,-4.9297,0,0,0,0,0,0,-4.8977,-4.8976,-4.9064,-4.9064,-4.8968,-4.897,-4.8969,-4.8996,-4.8978,-4.897,-4.8945,-4.8934,-4.895,-4.8954,-4.8959,-4.9125,-4.8947,-4.8951,-4.8954,-4.9285,-4.9293,-4.9299,0,0,0,0,0,0,-4.8974,-4.8986,-4.9064,-4.9017,-4.9025,-4.8978,-4.901,-4.8999,-4.9013,-4.8976,-4.8966,-4.8969,-4.8945,-4.8952,-4.9041,-4.9123,-4.8954,-4.8959,-4.9278,-4.9288,-4.9296,-4.9458,0,0,0,0,0,0,-4.8972,-4.8986,-4.904,-4.902,-4.9028,-4.9147,-4.9015,-4.9003,-4.9023,-4.9008,-4.8996,-4.8988,-4.8941,-4.9034,-4.9047,-4.9127,-4.8963,-4.9271,-4.9282,-4.9293,-4.9445,-4.9471,-4.9494,0,0,0,0,0,-4.8968,-4.9086,-4.9043,-4.9055,-4.9094,-4.9152,-4.9157,-4.9101,-4.903,-4.9084,-4.9059,-4.8989,-4.9112,-4.9045,-4.9057,-4.9141,-4.9266,-4.9279,-4.9292,-4.9434,-4.9466,-4.9493,0,0,0,0,0,0,-4.9117,-4.9082,-4.9035,-4.915,-4.9155,-4.9129,-4.9195,-4.9136,-4.9162,-4.9147,-4.9076,-4.9075,-4.9176,-4.9166,-4.9093,-4.9277,-4.9176,-4.9193,-4.928,-4.931,-4.9334,-4.9334,-4.8967,0,0,0,0,0,-4.9163,-4.9213,-4.918,-4.9284,-4.9289,-4.9242,-4.9265,-4.9221,-4.9224,-4.9226,-4.9207,-4.9213,-4.9252,-4.928,-4.9315,-4.9443,-4.9438,-4.9506,-4.953,-4.955,-4.9566,-4.9632,-4.9662,-4.9343,-4.9342,-4.9342,0,0,-4.926,-4.9247,-4.9283,-4.9314,-4.9313,-4.9366,-4.9245,-4.9306,-4.9345,-4.9235,-4.9319,-4.9306,-4.9307,-4.9416,-4.9464,-4.9412,-4.9653,-4.9567,-4.9584,-4.9588,-4.9649,-4.968,-4.9707,-4.9352,-4.935,-4.9348,0,0,-4.9463,-4.9458,-4.9544,-4.9546,-4.9545,-4.9513,-4.9534,-4.9516,-4.9503,-4.9586,-4.9504,-4.9549,-4.9619,-4.9623,-4.9635,-4.9838,-4.9774,-4.9851,-4.9979,-5.0044,-5.007,-5.0092,-5.0165,-5.0192,-4.9867,-4.9867,-4.9867,0,-4.9583,-4.966,-4.9596,-4.9664,-4.968,-4.9581,-4.9669,-4.9673,-4.9684,-4.9698,-4.9639,-4.9725,-4.9719,-4.9828,-4.9878,-4.989,-4.9912,-4.9853,-5.0071,-5.0093,-5.0112,-5.0181,-5.0209,-4.9876,-4.9875,-4.9874,-4.9873,0,-4.9807,-4.9862,-4.9932,-4.9945,-4.9969,-5.0046,-4.9994,-5.0026,-4.9979,-4.9953,-5.0038,-5.0027,-5.0058,-5.008,-5.0036,-5.0183,-5.0151,-5.0083,-4.998,-5.0153,-5.0217,-5.0243,-4.989,-4.9887,-4.9884,-4.9881,0,0,-5.0106,-5.0082,-5.0109,-5.0114,-5.0106,-5.0147,-5.0219,-5.0248,-5.0277,-5.0288,-5.0346,-5.0407,-5.0344,-5.0357,-5.0312,-5.037,-5.0533,-5.0295,-5.0294,-5.034,-5.0694,-5.0746,-5.0778,-5.049,-5.0494,-5.0498,-5.0695,0,-5.0303,-5.0425,-5.037,-5.0498,-5.0547,-5.0454,-5.0517,-5.0519,-5.0496,-5.0534,-5.0508,-5.0553,-5.0466,-5.0473,-5.0526,-5.0502,-5.0603,-5.0487,-5.0544,-5.0547,-5.0548,-5.0811,-5.0866,-5.1052,-5.0719,-5.0723,-5.0726,0,-5.055,-5.0571,-5.0704,-5.0686,-5.0705,-5.0762,-5.0784,-5.0822,-5.0822,-5.0801,-5.0816,-5.0757,-5.0827,-5.0724,-5.0818,-5.074,-5.076,-5.0752,-5.0757,-5.0762,-5.0648,-5.0823,-5.111,-5.1139,-5.0764,-5.0761,-5.0759,0,-5.0756,-5.0816,-5.0904,-5.091,-5.0892,-5.0934,-5.0929,-5.0923,-5.0944,-5.0963,-5.0976,-5.1004,-5.1019,-5.1042,-5.0992,-5.0922,-5.1094,-5.0986,-5.1079,-5.108,-5.112,-5.1119,-5.1416,-5.1132,-5.1132,-5.1131,-5.1131,0,-5.0982,-5.1067,-5.0996,-5.105,-5.1142,-5.1077,-5.117,-5.1154,-5.115,-5.1199,-5.112,-5.1167,-5.1098,-5.114,-5.1101,-5.1186,-5.1193,-5.1178,-5.1167,-5.1186,-5.1188,-5.1199,-5.1185,-5.1138,-5.1137,-5.1135,-5.1134,0,-5.1228,-5.1183,-5.1272,-5.1247,-5.1243,-5.1312,-5.129,-5.1339,-5.131,-5.1373,-5.1384,-5.1339,-5.1383,-5.1335,-5.1376,-5.135,-5.1464,-5.1433,-5.1464,-5.1456,-5.1551,-5.1543,-5.1866,-5.1905,-5.1596,-5.1599,-5.1602,0,-5.1376,-5.1439,-5.1421,-5.1448,-5.1446,-5.1491,-5.1512,-5.145,-5.1475,-5.1479,-5.1528,-5.1565,-5.1591,-5.1666,-5.1637,-5.1668,-5.1638,-5.1749,-5.1642,-5.1659,-5.164,-5.1637,-5.1644,-5.1771,-5.1775,-5.1778,-5.178,0,-5.1644,-5.1618,-5.1651,-5.1677,-5.1704,-5.1721,-5.1732,-5.1759,-5.1694,-5.1726,-5.177,-5.1791,-5.1832,-5.187,-5.1892,-5.1886,-5.1823,-5.1814,-5.1837,-5.1857,-5.1873,-5.1866,-5.1524,-5.1807,-5.1804,-5.1802,-5.1801,-5.18,-5.1846,-5.1897,-5.1892,-5.1931,-5.1933,-5.1945,-5.1989,-5.1965,-5.2001,-5.2029,-5.199,-5.2045,-5.2042,-5.2065,-5.2066,-5.2108,-5.2061,-5.2094,-5.2103,-5.2112,-5.2127,-5.1865,-5.2112,-5.2111,-5.211,-5.2109,-5.2109,0,-5.211,-5.2101,-5.2138,-5.2156,-5.2187,-5.2123,-5.2132,-5.2162,-5.2211,-5.2214,-5.2241,-5.2292,-5.2328,-5.2302,-5.2332,-5.2371,-5.2343,-5.2381,-5.2378,-5.2378,-5.2167,-5.2144,-5.2403,-5.2403,-5.2403,-5.2403,-5.2403,-5.2403,-5.2251,-5.2335,-5.2309,-5.2393,-5.2383,-5.2436,-5.2446,-5.2457,-5.2459,-5.2518,-5.2548,-5.253,-5.2521,-5.255,-5.2581,-5.2572,-5.2587,-5.2636,-5.2617,-5.2421,-5.2392,-5.2365,-5.2343,-5.264,-5.264,-5.2824,-5.2826,-5.2827]},{"header":{"parameterUnit":"m.s-1","parameterCategory":1,"la1":30.2991,"la2":30.254,"lo1":-89.0895,"lo2":-89.0444,"dy":0.0017,"dx":0.0017,"nx":28,"ny":28,"refTime":"2023-11-12T09:00:00:Z","depth":0,"parameterNumber":3,"parameterNumberName":"V-component_of_WINDS"},"data":[0,0,0,0,0,0,0,0,0,0,0,0,0,0,0,0,0,0,0,0,0,0,0,0,0,0,0,0,0,0,0,0,0,0,0,0,0,0,0,0,0,0,0,0,0,0,0,0,0,0,0,0,0,0,0,0,0,0,-3.93,-3.9301,0,-3.9365,-3.9366,-3.9366,-3.9336,-3.9334,-3.9332,-3.9331,-3.9395,-3.9398,-3.9402,0,0,0,0,0,0,0,0,0,0,0,0,0,-3.9147,-3.915,-3.93,-3.9301,-3.9302,-3.9365,-3.9366,-3.9367,-3.9336,-3.9334,-3.9332,-3.933,-3.9394,-3.9398,-3.9402,0,0,0,0,0,0,0,0,0,0,0,0,0,-3.9213,-3.9151,-3.93,-3.9294,-3.9294,-3.9365,-3.9366,-3.9367,-3.9336,-3.9334,-3.9331,-3.9329,-3.9393,-3.9398,-3.9402,-3.9482,0,0,-3.9417,-3.942,0,0,0,0,0,0,0,0,-3.9209,-3.9218,-3.9294,-3.9295,-3.9295,-3.934,-3.9335,-3.9405,-3.9337,-3.932,-3.9331,-3.9328,-3.9379,-3.9385,-3.9402,-3.9485,-3.9488,-3.9418,-3.9421,-3.9423,-3.9424,0,0,0,0,0,0,0,-3.9204,-3.9215,-3.9326,-3.9295,-3.9296,-3.9287,-3.9294,-3.9348,-3.9362,-3.9321,-3.9319,-3.9328,-3.9378,-3.9397,-3.9403,-3.9489,-3.9418,-3.9422,-3.9425,-3.9427,-3.9639,-3.9642,0,0,0,0,0,0,-3.92,-3.9212,-3.9324,-3.9328,-3.9245,-3.9292,-3.9299,-3.9328,-3.9362,-3.9365,-3.933,-3.9326,-3.939,-3.9398,-3.9406,-3.95,-3.9423,-3.9427,-3.943,-3.9636,-3.964,-3.9643,0,0,0,0,0,0,-3.9197,-3.9211,-3.9321,-3.9269,-3.9283,-3.9297,-3.9329,-3.933,-3.9349,-3.9368,-3.937,-3.9347,-3.9389,-3.9399,-3.9463,-3.9502,-3.943,-3.9434,-3.9633,-3.9637,-3.9641,-3.9691,0,0,0,0,0,0,-3.9193,-3.921,-3.9241,-3.927,-3.9286,-3.9379,-3.9332,-3.9333,-3.9358,-3.9354,-3.9385,-3.9387,-3.9388,-3.9456,-3.9468,-3.9507,-3.9438,-3.963,-3.9635,-3.964,-3.9686,-3.9696,-3.9705,0,0,0,0,0,-3.9188,-3.9252,-3.9243,-3.9256,-3.9325,-3.9381,-3.939,-3.9389,-3.9361,-3.9392,-3.9404,-3.9386,-3.9496,-3.9463,-3.9476,-3.9518,-3.9627,-3.9633,-3.9639,-3.9681,-3.9694,-3.9705,0,0,0,0,0,0,-3.9227,-3.9256,-3.9246,-3.9322,-3.9349,-3.9376,-3.9415,-3.9403,-3.9438,-3.9432,-3.9429,-3.9437,-3.9503,-3.9517,-3.948,-3.9596,-3.9557,-3.9566,-3.9585,-3.9597,-3.9606,-3.9601,-3.9442,0,0,0,0,0,-3.9244,-3.9288,-3.9311,-3.9376,-3.939,-3.94,-3.9425,-3.9422,-3.945,-3.9461,-3.9477,-3.9504,-3.9545,-3.9571,-3.961,-3.9687,-3.9693,-3.9722,-3.9732,-3.974,-3.9748,-3.9789,-3.9802,-3.9662,-3.9662,-3.9662,0,0,-3.9281,-3.9302,-3.933,-3.9384,-3.9405,-3.945,-3.941,-3.9459,-3.9492,-3.9468,-3.953,-3.9543,-3.9573,-3.9644,-3.9676,-3.9657,-3.9787,-3.9747,-3.9754,-3.9757,-3.9796,-3.9809,-3.9821,-3.9667,-3.9666,-3.9665,0,0,-3.937,-3.9391,-3.9447,-3.9469,-3.9501,-3.9507,-3.952,-3.9549,-3.9557,-3.9619,-3.9601,-3.964,-3.971,-3.9732,-3.9752,-3.9848,-3.9833,-3.9861,-3.9911,-3.9951,-3.9962,-3.9971,-4.0005,-4.0017,-3.9868,-3.9869,-3.9869,0,-3.9412,-3.9479,-3.9477,-3.9528,-3.9552,-3.9532,-3.9588,-3.9609,-3.9652,-3.9668,-3.9647,-3.9733,-3.9752,-3.9828,-3.9851,-3.9869,-3.9883,-3.9857,-3.996,-3.997,-3.9979,-4.0011,-4.0024,-3.9872,-3.9871,-3.9871,-3.9871,0,-3.9528,-3.9574,-3.9616,-3.9658,-3.9686,-3.9739,-3.9745,-3.9773,-3.9768,-3.9776,-3.9839,-3.986,-3.9902,-3.992,-3.9915,-3.9995,-3.9982,-3.9961,-3.9922,-3.9996,-4.0026,-4.0038,-3.9876,-3.9875,-3.9874,-3.9873,0,0,-3.9644,-3.9684,-3.97,-3.9718,-3.9752,-3.9787,-3.9839,-3.988,-3.9904,-3.9934,-3.9976,-4.0036,-4.0016,-4.0039,-4.0036,-4.0071,-4.0145,-4.0045,-4.0046,-4.0062,-4.0233,-4.0249,-4.0263,-4.0135,-4.0137,-4.0139,-4.023,0,-3.9736,-3.9827,-3.9826,-3.991,-3.9952,-3.9934,-3.9979,-4.0004,-4.0012,-4.0049,-4.0058,-4.0099,-4.007,-4.0084,-4.0118,-4.0129,-4.0179,-4.0122,-4.0174,-4.0175,-4.0167,-4.0279,-4.0296,-4.0381,-4.0242,-4.0244,-4.0246,0,-3.9855,-3.9889,-3.9977,-4.0003,-4.0021,-4.0061,-4.0099,-4.0134,-4.0161,-4.0165,-4.019,-4.0182,-4.0233,-4.0192,-4.0262,-4.0223,-4.0244,-4.0252,-4.0256,-4.026,-4.0215,-4.0286,-4.0408,-4.0421,-4.0264,-4.0263,-4.0262,0,-3.993,-3.9998,-4.0059,-4.0076,-4.0108,-4.0137,-4.0151,-4.0176,-4.0201,-4.0233,-4.0249,-4.0286,-4.0307,-4.0336,-4.0337,-4.0308,-4.0407,-4.0367,-4.0411,-4.0411,-4.0433,-4.0431,-4.056,-4.0447,-4.0447,-4.0446,-4.0446,0,-4.0033,-4.0087,-4.0094,-4.0131,-4.0191,-4.0189,-4.0249,-4.026,-4.0283,-4.0321,-4.0307,-4.0344,-4.0344,-4.038,-4.0382,-4.0439,-4.0448,-4.0452,-4.0451,-4.0453,-4.0453,-4.0467,-4.0461,-4.045,-4.0449,-4.0448,-4.0448,0,-4.0127,-4.0134,-4.0199,-4.0225,-4.0232,-4.0275,-4.0296,-4.0331,-4.0338,-4.0387,-4.0399,-4.041,-4.0452,-4.0456,-4.0506,-4.0506,-4.0575,-4.0569,-4.0566,-4.0565,-4.0608,-4.0604,-4.075,-4.0769,-4.0644,-4.0645,-4.0646,0,-4.0192,-4.0233,-4.0263,-4.0288,-4.0305,-4.0346,-4.037,-4.037,-4.0396,-4.043,-4.0461,-4.0502,-4.0535,-4.0604,-4.0615,-4.0653,-4.0647,-4.0695,-4.0652,-4.0652,-4.0647,-4.0644,-4.0648,-4.0703,-4.0705,-4.0706,-4.0707,0,-4.0306,-4.0307,-4.0344,-4.0382,-4.0412,-4.0442,-4.0469,-4.0491,-4.0493,-4.0523,-4.0567,-4.0593,-4.0643,-4.0684,-4.072,-4.0734,-4.0721,-4.072,-4.0732,-4.0734,-4.0731,-4.0733,-4.0589,-4.0717,-4.0716,-4.0715,-4.0715,-4.0714,-4.0387,-4.0423,-4.0449,-4.049,-4.0511,-4.0537,-4.0571,-4.0582,-4.0619,-4.066,-4.0657,-4.0705,-4.073,-4.0778,-4.0794,-4.0831,-4.0815,-4.0832,-4.0837,-4.0841,-4.0845,-4.0725,-4.0838,-4.0837,-4.0837,-4.0837,-4.0837,0,-4.05,-4.0516,-4.0554,-4.0593,-4.0625,-4.061,-4.064,-4.0667,-4.071,-4.0734,-4.0767,-4.0816,-4.0856,-4.087,-4.0908,-4.0935,-4.093,-4.0945,-4.0943,-4.0946,-4.0858,-4.0844,-4.0948,-4.0948,-4.0948,-4.0948,-4.0948,-4.0948,-4.0562,-4.0622,-4.0625,-4.0694,-4.0709,-4.0757,-4.0775,-4.0798,-4.0818,-4.0874,-4.0906,-4.0916,-4.0936,-4.0975,-4.101,-4.1013,-4.1028,-4.1045,-4.1046,-4.0963,-4.0952,-4.0942,-4.0928,-4.1049,-4.1049,-4.1131,-4.1131,-4.1132]}]]